Meteo pe oră la Dablin

Astăzi, 14 Aprilie, Miercuri

Timp Temperatura Precipitaţii Vânt Presiune Umiditate
00:00 +3°C° 0 mm 2 m/s 760 mmHg 72%
01:00 +3°C° 0 mm 2 m/s 760 mmHg 72%
02:00 +3°C° 0 mm 2 m/s 760 mmHg 73%
03:00 +3°C° 0 mm 2 m/s 760 mmHg 73%
04:00 +2°C° 0 mm 2 m/s 760 mmHg 74%
05:00 +3°C° 0 mm 2 m/s 760 mmHg 73%
06:00 +2°C° 0 mm 3 m/s 760 mmHg 73%
07:00 +2°C° 0 mm 3 m/s 760 mmHg 73%
08:00 +3°C° 0 mm 3 m/s 760 mmHg 70%
09:00 +4°C° 0 mm 3 m/s 760 mmHg 66%
10:00 +5°C° 0 mm 3 m/s 760 mmHg 63%
11:00 +5°C° 0 mm 4 m/s 760 mmHg 58%
12:00 +6°C° 0 mm 4 m/s 760 mmHg 54%
13:00 +6°C° 0 mm 4 m/s 760 mmHg 50%
14:00 +6°C° 0 mm 4 m/s 759 mmHg 52%
15:00 +6°C° 0 mm 5 m/s 759 mmHg 54%
16:00 +6°C° 0 mm 5 m/s 759 mmHg 57%
17:00 +5°C° 0 mm 4 m/s 760 mmHg 61%
18:00 +4°C° 0 mm 4 m/s 760 mmHg 66%
19:00 +3°C° 0 mm 4 m/s 760 mmHg 70%
20:00 +3°C° 0 mm 4 m/s 760 mmHg 70%
21:00 +3°C° 0 mm 4 m/s 760 mmHg 69%
22:00 +1°C° 0 mm 4 m/s 760 mmHg 69%
23:00 +1°C° 0 mm 4 m/s 760 mmHg 72%

Mâine, 15 Aprilie, Joi

Timp Temperatura Precipitaţii Vânt Presiune Umiditate
00:00 +1°C° 0 mm 4 m/s 760 mmHg 75%
01:00 +1°C° 0 mm 5 m/s 760 mmHg 77%
02:00 +1°C° 0.2 mm 5 m/s 759 mmHg 83%
03:00 0°C° 0.2 mm 5 m/s 759 mmHg 90%
04:00 0°C° 0.2 mm 5 m/s 759 mmHg 96%
05:00 -1°C° 0.2 mm 6 m/s 759 mmHg 95%
06:00 -1°C° 0.2 mm 6 m/s 759 mmHg 94%
07:00 -1°C° 0.2 mm 7 m/s 759 mmHg 94%
08:00 -1°C° 0.5 mm 6 m/s 759 mmHg 94%
09:00 -1°C° 0.5 mm 6 m/s 759 mmHg 95%
10:00 -1°C° 0.5 mm 6 m/s 758 mmHg 96%
11:00 -1°C° 0.8 mm 6 m/s 758 mmHg 96%
12:00 -1°C° 0.8 mm 6 m/s 758 mmHg 96%
13:00 -1°C° 0.8 mm 6 m/s 758 mmHg 96%
14:00 0°C° 0.8 mm 5 m/s 758 mmHg 97%
15:00 0°C° 0.8 mm 5 m/s 758 mmHg 97%
16:00 0°C° 0.8 mm 5 m/s 758 mmHg 97%
17:00 +1°C° 0.6 mm 5 m/s 758 mmHg 96%
18:00 +1°C° 0.6 mm 5 m/s 758 mmHg 95%
19:00 +2°C° 0.6 mm 5 m/s 758 mmHg 93%
20:00 +2°C° 0.2 mm 5 m/s 758 mmHg 93%
21:00 +3°C° 0.2 mm 4 m/s 758 mmHg 93%
22:00 +3°C° 0.2 mm 4 m/s 757 mmHg 92%
23:00 +3°C° 0 mm 4 m/s 757 mmHg 92%

Poimâine, 16 Aprilie, Vineri

Timp Temperatura Precipitaţii Vânt Presiune Umiditate
00:00 +3°C° 0 mm 4 m/s 757 mmHg 91%
01:00 +3°C° 0 mm 4 m/s 757 mmHg 91%
02:00 +3°C° 0 mm 4 m/s 757 mmHg 90%
03:00 +3°C° 0 mm 4 m/s 757 mmHg 89%
04:00 +1°C° 0 mm 4 m/s 757 mmHg 88%
05:00 +3°C° 0 mm 4 m/s 757 mmHg 87%
06:00 +3°C° 0 mm 4 m/s 757 mmHg 87%
07:00 +3°C° 0 mm 4 m/s 757 mmHg 86%
08:00 +3°C° 0.2 mm 4 m/s 758 mmHg 90%
09:00 +1°C° 0.2 mm 4 m/s 758 mmHg 93%
10:00 +1°C° 0.2 mm 4 m/s 758 mmHg 96%
11:00 +1°C° 0.1 mm 4 m/s 758 mmHg 95%
12:00 +3°C° 0.1 mm 4 m/s 758 mmHg 94%
13:00 +3°C° 0.1 mm 4 m/s 758 mmHg 93%
14:00 +3°C° 0.1 mm 4 m/s 758 mmHg 93%
15:00 +4°C° 0.1 mm 4 m/s 758 mmHg 92%
16:00 +4°C° 0.1 mm 3 m/s 758 mmHg 91%
17:00 +4°C° 0 mm 3 m/s 758 mmHg 92%
18:00 +4°C° 0 mm 3 m/s 758 mmHg 93%
19:00 +4°C° 0 mm 3 m/s 759 mmHg 94%
20:00 +4°C° 0 mm 3 m/s 759 mmHg 95%
21:00 +3°C° 0 mm 3 m/s 759 mmHg 95%
22:00 +3°C° 0 mm 3 m/s 759 mmHg 96%
23:00 +3°C° 0 mm 3 m/s 759 mmHg 96%

17 Aprilie, Sâmbătă

Timp Temperatura Precipitaţii Vânt Presiune Umiditate
00:00 +4°C° 0 mm 3 m/s 758 mmHg 96%
01:00 +4°C° 0 mm 3 m/s 758 mmHg 96%
02:00 +4°C° 0 mm 3 m/s 758 mmHg 96%
03:00 +4°C° 0 mm 3 m/s 758 mmHg 96%
04:00 +4°C° 0 mm 3 m/s 758 mmHg 96%
05:00 +4°C° 0 mm 3 m/s 758 mmHg 95%
06:00 +5°C° 0 mm 3 m/s 758 mmHg 94%
07:00 +5°C° 0 mm 3 m/s 758 mmHg 94%
08:00 +7°C° 0 mm 3 m/s 758 mmHg 93%
09:00 +7°C° 0 mm 3 m/s 758 mmHg 93%
10:00 +7°C° 0 mm 3 m/s 758 mmHg 92%
11:00 +8°C° 0 mm 3 m/s 758 mmHg 88%
12:00 +9°C° 0 mm 3 m/s 758 mmHg 85%
13:00 +10°C° 0 mm 3 m/s 758 mmHg 81%
14:00 +10°C° 0.1 mm 3 m/s 758 mmHg 80%
15:00 +10°C° 0.1 mm 3 m/s 758 mmHg 79%
16:00 +11°C° 0.1 mm 4 m/s 758 mmHg 78%
17:00 +10°C° 0.3 mm 3 m/s 758 mmHg 82%
18:00 +9°C° 0.3 mm 3 m/s 758 mmHg 86%
19:00 +8°C° 0.3 mm 3 m/s 758 mmHg 90%
20:00 +8°C° 0.1 mm 3 m/s 758 mmHg 91%
21:00 +7°C° 0.1 mm 3 m/s 758 mmHg 93%
22:00 +6°C° 0.1 mm 2 m/s 758 mmHg 94%
23:00 +6°C° 0 mm 2 m/s 758 mmHg 94%

18 Aprilie, Duminică

Timp Temperatura Precipitaţii Vânt Presiune Umiditate
00:00 +6°C° 0 mm 2 m/s 758 mmHg 94%
01:00 +5°C° 0 mm 2 m/s 758 mmHg 94%
02:00 +5°C° 0 mm 2 m/s 758 mmHg 94%
03:00 +5°C° 0 mm 2 m/s 758 mmHg 94%
04:00 +6°C° 0 mm 2 m/s 758 mmHg 94%
05:00 +6°C° 0 mm 2 m/s 758 mmHg 92%
06:00 +7°C° 0 mm 2 m/s 758 mmHg 90%
07:00 +7°C° 0 mm 2 m/s 759 mmHg 88%
08:00 +8°C° 0 mm 2 m/s 759 mmHg 85%
09:00 +9°C° 0 mm 2 m/s 759 mmHg 81%
10:00 +9°C° 0 mm 2 m/s 759 mmHg 78%
11:00 +10°C° 0 mm 2 m/s 759 mmHg 74%
12:00 +12°C° 0 mm 2 m/s 759 mmHg 70%
13:00 +13°C° 0 mm 2 m/s 759 mmHg 65%
14:00 +13°C° 0 mm 2 m/s 759 mmHg 64%
15:00 +13°C° 0 mm 2 m/s 758 mmHg 62%
16:00 +14°C° 0 mm 2 m/s 758 mmHg 60%
17:00 +13°C° 0 mm 2 m/s 758 mmHg 64%
18:00 +12°C° 0 mm 2 m/s 759 mmHg 69%
19:00 +10°C° 0 mm 2 m/s 759 mmHg 73%
20:00 +10°C° 0 mm 2 m/s 759 mmHg 77%
21:00 +9°C° 0 mm 2 m/s 759 mmHg 81%
22:00 +9°C° 0 mm 2 m/s 759 mmHg 85%
23:00 +8°C° 0 mm 2 m/s 759 mmHg 87%

19 Aprilie, Luni

Timp Temperatura Precipitaţii Vânt Presiune Umiditate
00:00 +8°C° 0 mm 2 m/s 759 mmHg 89%
01:00 +8°C° 0 mm 3 m/s 759 mmHg 91%
02:00 +8°C° 0 mm 3 m/s 758 mmHg 92%
03:00 +8°C° 0 mm 2 m/s 758 mmHg 93%
04:00 +7°C° 0 mm 2 m/s 758 mmHg 94%
05:00 +8°C° 0 mm 3 m/s 758 mmHg 93%
06:00 +8°C° 0 mm 3 m/s 758 mmHg 92%
07:00 +8°C° 0 mm 4 m/s 758 mmHg 90%
08:00 +10°C° 0 mm 4 m/s 758 mmHg 83%
09:00 +10°C° 0 mm 5 m/s 758 mmHg 76%
10:00 +12°C° 0 mm 5 m/s 758 mmHg 69%
11:00 +12°C° 0 mm 5 m/s 758 mmHg 66%
12:00 +13°C° 0 mm 5 m/s 758 mmHg 63%
13:00 +13°C° 0 mm 5 m/s 758 mmHg 60%
14:00 +13°C° 0.1 mm 5 m/s 758 mmHg 61%
15:00 +13°C° 0.1 mm 5 m/s 757 mmHg 63%
16:00 +13°C° 0.1 mm 5 m/s 757 mmHg 65%
17:00 +12°C° 0 mm 4 m/s 757 mmHg 68%
18:00 +11°C° 0 mm 4 m/s 757 mmHg 72%
19:00 +10°C° 0 mm 4 m/s 757 mmHg 76%
20:00 +10°C° 0 mm 4 m/s 757 mmHg 78%
21:00 +8°C° 0 mm 4 m/s 757 mmHg 80%
22:00 +9°C° 0 mm 3 m/s 757 mmHg 82%
23:00 +9°C° 0 mm 3 m/s 757 mmHg 83%
Arată mai mult

Formular de consimțământ

Meteoprog și furnizorii noștri de servicii pot stoca și accesa date personale, precum cookies, identificatori de dispozitiv sau alte tehnologii similare pe dispozitivul dumneavoastră și procesa astfel de date pentru a personaliza conținutul și reclamele, dar și pentru a oferi caracteristici de social media și pentru a analiza traficul.

  • Stocarea și/sau accesarea informațiilor pe dispozitivul dumneavoastră

    Cookies, identificatori de dispozitiv sau alte informații pot fi stocate sau accesate pe dispozitiv în scopurile indicate mai sus.

  • Reclame și conținut personalizat, evaluarea reclamelor și a conținutului, informații despre audiențe și dezvoltarea produselor

    Reclamele și conținutul pot fi personalizate pe baza unui profil. Pot fi adăugate date suplimentare pentru a personaliza mai bine reclamele și conținutul. Performanța reclamelor și conținutului poate fi măsurată. Pot fi obținute informații despre utilizatorii care au văzut reclamele și conținutul. Aceste date pot fi utilizate pentru a dezvolta sau îmbunătăți experiența utilizatorilor, sistemele și software-ul.

Dând clic pe ‘Sunt de acord’, permiteți utilizarea cookie-urilor menționate, a identificatorilor de dispozitiv, balizelor web sau altor tehnologii similare. Setările pot fi modificate din browser-ul dispozitivului dumneavoastră.

În anumite scopuri, interesele legitime pot prima asupra consimțământului. Puteți citi mai multe informații în acest sens în Politica privind Confidențialitatea Datelor și Cookie.